User: anonymous   Login
Location: Arborea
(39.7744°N, 8.5819°E)
Time: 09:46:46
(UTC+00:00)
Language:

DX 1 - Orbit

View from above orbital plane
View from above orbital plane
View from above satellite
View from above satellite

Ground track
Ground track

The orbit data is extracted from the following two-line orbital elements,

1 40071U 14037C   24146.84911240  .00003106  00000-0  37293-3 0  9990
2 40071  98.3353  58.3198 0007626 184.7139 175.4004 14.84777527534323
Epoch (UTC): 25 May 2024 20:22:43
Eccentricity: 0.0007626
inclination: 98.3353°
perigee height: 609 km
apogee height: 619 km
right ascension of ascending node: 58.3198°
argument of perigee: 184.7139°
revolutions per day: 14.84777527
mean anomaly at epoch: 175.4004°
orbit number at epoch: 53432

The dashed part of the orbit path shows where the satellite is in the earth's shadow,  

DLR